TimeEDT,TemperatureF,Dew PointF,Humidity,Sea Level PressureIn,VisibilityMPH,Wind Direction,Wind SpeedMPH,Gust SpeedMPH,PrecipitationIn,Events,Conditions,WindDirDegrees,DateUTC
12:53 AM,57.0,37.0,47,29.90,10.0,SSW,15.0,21.9,N/A,,Clear,210,2012-09-25 04:53:00
1:53 AM,55.9,37.9,51,29.90,10.0,SSW,11.5,-,N/A,,Clear,210,2012-09-25 05:53:00
2:53 AM,55.0,39.0,55,29.90,10.0,SSW,10.4,-,N/A,,Clear,200,2012-09-25 06:53:00
3:53 AM,54.0,39.9,59,29.89,10.0,SSW,9.2,-,N/A,,Clear,200,2012-09-25 07:53:00
4:53 AM,53.1,41.0,64,29.89,10.0,SSW,9.2,-,N/A,,Clear,200,2012-09-25 08:53:00
5:53 AM,53.1,41.0,64,29.89,10.0,SSW,11.5,-,N/A,,Clear,200,2012-09-25 09:53:00
6:53 AM,51.1,41.0,68,29.87,10.0,South,5.8,-,N/A,,Partly Cloudy,170,2012-09-25 10:53:00
7:53 AM,48.9,41.0,74,29.89,10.0,Calm,Calm,-,N/A,,Partly Cloudy,0,2012-09-25 11:53:00
8:53 AM,54.0,43.0,66,29.93,10.0,SSW,11.5,-,N/A,,Mostly Cloudy,210,2012-09-25 12:53:00
9:53 AM,60.1,45.0,57,29.90,10.0,SW,11.5,17.3,N/A,,Mostly Cloudy,220,2012-09-25 13:53:00
10:53 AM,62.1,48.0,60,29.91,10.0,SW,12.7,-,N/A,,Mostly Cloudy,220,2012-09-25 14:53:00
11:53 AM,64.9,50.0,58,29.90,10.0,WSW,12.7,-,N/A,,Mostly Cloudy,250,2012-09-25 15:53:00
12:53 PM,69.1,51.1,53,29.87,10.0,WSW,8.1,-,N/A,,Mostly Cloudy,250,2012-09-25 16:53:00
1:53 PM,71.1,51.1,49,29.86,10.0,WSW,10.4,-,N/A,,Mostly Cloudy,250,2012-09-25 17:53:00
2:53 PM,73.4,51.8,47,29.84,10.0,SW,10.4,-,N/A,,Scattered Clouds,220,2012-09-25 18:53:00
3:53 PM,72.0,52.0,49,29.83,10.0,SSW,11.5,17.3,N/A,,Mostly Cloudy,210,2012-09-25 19:53:00
4:53 PM,71.1,52.0,51,29.84,10.0,SSW,10.4,-,N/A,,Mostly Cloudy,210,2012-09-25 20:53:00
5:53 PM,70.0,52.0,53,29.85,10.0,SSW,12.7,-,N/A,,Scattered Clouds,210,2012-09-25 21:53:00
6:53 PM,68.0,51.8,56,29.85,10.0,South,11.5,-,N/A,,Scattered Clouds,190,2012-09-25 22:53:00
7:53 PM,63.0,52.0,67,29.86,10.0,SSW,4.6,-,N/A,,Scattered Clouds,200,2012-09-25 23:53:00
8:53 PM,60.1,52.0,75,29.86,10.0,South,5.8,-,N/A,,Clear,180,2012-09-26 00:53:00
9:53 PM,57.0,52.0,83,29.87,10.0,South,6.9,-,N/A,,Clear,180,2012-09-26 01:53:00
10:53 PM,55.9,51.1,84,29.87,10.0,Calm,Calm,-,N/A,,Clear,0,2012-09-26 02:53:00
11:53 PM,55.9,52.0,87,29.88,10.0,NNE,3.5,-,N/A,,Partly Cloudy,30,2012-09-26 03:53:00